Overview Statistics Trail Chart Weather Telemetry Raw packets
 

This is the latest recevied weather packets stored in our database for station/object N4ASP-13. If no packets are shown the sender has not sent any weather packets the latest 10 day(s).

<< 560 561 562 563 564 565 566 >>
Time Temp. Humidity Pressure Rain* Wind** Luminosity Snow
1787779241 26.67° C 77% 1018.2 hPa 0 mm - 476 W/m² -
1787779179 26.67° C 76% 1018.2 hPa 0 mm - 494 W/m² -
1787779120 26.67° C 75% 1018.2 hPa 0 mm - 489 W/m² -
1787779060 26.67° C 75% 1018.3 hPa 0 mm - 501 W/m² -
1787778997 26.67° C 75% 1018.3 hPa 0 mm - 482 W/m² -
1787778938 26.67° C 75% 1018.2 hPa 0 mm - 438 W/m² -
1787778878 26.67° C 75% 1018.2 hPa 0 mm - 469 W/m² -
1787778818 26.67° C 75% 1018.2 hPa 0 mm - 496 W/m² -
1787778756 26.67° C 75% 1018.3 hPa 0 mm - 462 W/m² -
1787778694 26.67° C 75% 1018.2 hPa 0 mm - 490 W/m² -
1787778633 26.67° C 75% 1018.3 hPa 0 mm - 478 W/m² -
1787778574 26.67° C 75% 1018.3 hPa 0 mm - 504 W/m² -
1787778514 26.67° C 73% 1018.3 hPa 0 mm - 504 W/m² -
1787778455 26.67° C 76% 1018.2 hPa 0 mm - 513 W/m² -
1787778394 26.67° C 74% 1018.2 hPa 0 mm - 563 W/m² -
1787778333 26.67° C 75% 1018.2 hPa 0 mm - 380 W/m² -
1787778274 26.67° C 75% 1018.2 hPa 0 mm - 380 W/m² -
1787778215 26.67° C 75% 1018.2 hPa 0 mm - 415 W/m² -
1787778154 26.67° C 75% 1018.1 hPa 0 mm - 417 W/m² -
1787778095 26.67° C 73% 1018.2 hPa 0 mm - 383 W/m² -
1787778034 26.67° C 74% 1018.2 hPa 0 mm - 476 W/m² -
1787777974 26.67° C 74% 1018.3 hPa 0 mm - 434 W/m² -
1787777914 26.67° C 74% 1018.3 hPa 0 mm - 360 W/m² -
1787777855 26.67° C 74% 1018.2 hPa 0 mm - 540 W/m² -
1787777792 26.67° C 75% 1018.4 hPa 0 mm - 540 W/m² -

* Rain latest hour (hover to see other rain measurements)
** Current wind speed in m/s (hover to see current wind gust speed)